• In Hungary
  • List of Countries
  • For 7 days
  • Water Temperature
  • Satellite Maps
  • Weather Map
  • News
  • Weather Widgets
  • user-avatar
    Login

    Hourly Weather Voronino-Pashnya

    Today, 22 May, Tuesday

    Time Temperature Precipitation Wind Pressure Humidity
    00:00 +12°C° 0.4 mm 3 mps 739 mmHg 96%
    01:00 +12°C° 0 mm 3 mps 739 mmHg 95%
    02:00 +11°C° 0 mm 4 mps 739 mmHg 95%
    03:00 +10°C° 0 mm 4 mps 739 mmHg 94%
    04:00 +10°C° 0 mm 4 mps 740 mmHg 93%
    05:00 +8°C° 0 mm 4 mps 740 mmHg 91%
    06:00 +7°C° 0 mm 4 mps 740 mmHg 90%
    07:00 +7°C° 0 mm 4 mps 740 mmHg 88%
    08:00 +7°C° 0 mm 4 mps 740 mmHg 87%
    09:00 +6°C° 0 mm 4 mps 741 mmHg 85%
    10:00 +6°C° 0.1 mm 4 mps 740 mmHg 83%
    11:00 +8°C° 0.1 mm 3 mps 740 mmHg 81%
    12:00 +8°C° 0.1 mm 3 mps 740 mmHg 78%
    13:00 +8°C° 0 mm 3 mps 740 mmHg 75%
    14:00 +8°C° 0 mm 3 mps 740 mmHg 72%
    15:00 +9°C° 0 mm 3 mps 739 mmHg 69%
    16:00 +8°C° 0 mm 3 mps 739 mmHg 68%
    17:00 +8°C° 0 mm 3 mps 739 mmHg 67%
    18:00 +8°C° 0 mm 3 mps 738 mmHg 67%
    19:00 +7°C° 0 mm 2 mps 738 mmHg 69%
    20:00 +7°C° 0 mm 2 mps 738 mmHg 72%
    21:00 +7°C° 0 mm 1 mps 738 mmHg 75%
    22:00 +6°C° 0 mm 1 mps 737 mmHg 77%
    23:00 +6°C° 0 mm 1 mps 737 mmHg 79%

    Tomorrow, 23 May, Wednesday

    Time Temperature Precipitation Wind Pressure Humidity
    00:00 +5°C° 0 mm 1 mps 737 mmHg 81%
    01:00 +4°C° 0 mm 1 mps 736 mmHg 83%
    02:00 +4°C° 0 mm 1 mps 736 mmHg 85%
    03:00 +3°C° 0 mm 1 mps 735 mmHg 86%
    04:00 +4°C° 0 mm 1 mps 735 mmHg 83%
    05:00 +5°C° 0 mm 1 mps 735 mmHg 79%
    06:00 +6°C° 0 mm 1 mps 735 mmHg 76%
    07:00 +8°C° 0 mm 1 mps 735 mmHg 68%
    08:00 +10°C° 0 mm 1 mps 736 mmHg 60%
    09:00 +11°C° 0 mm 0 mps 736 mmHg 52%
    10:00 +13°C° 0 mm 1 mps 736 mmHg 48%
    11:00 +14°C° 0 mm 1 mps 736 mmHg 44%
    12:00 +15°C° 0 mm 1 mps 736 mmHg 40%
    13:00 +14°C° 0 mm 1 mps 736 mmHg 40%
    14:00 +14°C° 0 mm 2 mps 736 mmHg 40%
    15:00 +14°C° 0 mm 2 mps 736 mmHg 40%
    16:00 +12°C° 0.1 mm 3 mps 737 mmHg 44%
    17:00 +12°C° 0.1 mm 3 mps 737 mmHg 49%
    18:00 +11°C° 0.1 mm 3 mps 737 mmHg 54%
    19:00 +8°C° 0.2 mm 4 mps 738 mmHg 62%
    20:00 +7°C° 0.2 mm 4 mps 738 mmHg 70%
    21:00 +5°C° 0.2 mm 5 mps 739 mmHg 77%
    22:00 +3°C° 0.4 mm 5 mps 739 mmHg 78%
    23:00 +3°C° 0.4 mm 4 mps 740 mmHg 79%

    Day after tomorrow, 24 May, Thursday

    Time Temperature Precipitation Wind Pressure Humidity
    00:00 +3°C° 0.4 mm 4 mps 740 mmHg 80%
    01:00 +1°C° 0.2 mm 4 mps 741 mmHg 81%
    02:00 0°C° 0.2 mm 4 mps 741 mmHg 83%
    03:00 -1°C° 0.2 mm 4 mps 742 mmHg 85%
    04:00 -1°C° 0 mm 4 mps 742 mmHg 83%
    05:00 0°C° 0 mm 5 mps 743 mmHg 82%
    06:00 0°C° 0 mm 5 mps 744 mmHg 81%
    07:00 +1°C° 0 mm 5 mps 744 mmHg 73%
    08:00 +2°C° 0 mm 5 mps 745 mmHg 66%
    09:00 +3°C° 0 mm 5 mps 745 mmHg 58%
    10:00 +5°C° 0 mm 5 mps 746 mmHg 54%
    11:00 +5°C° 0 mm 4 mps 746 mmHg 50%
    12:00 +6°C° 0 mm 4 mps 746 mmHg 45%
    13:00 +7°C° 0 mm 4 mps 746 mmHg 44%
    14:00 +7°C° 0 mm 4 mps 746 mmHg 43%
    15:00 +8°C° 0 mm 4 mps 746 mmHg 41%
    16:00 +8°C° 0 mm 4 mps 746 mmHg 41%
    17:00 +9°C° 0 mm 3 mps 746 mmHg 41%
    18:00 +9°C° 0 mm 3 mps 746 mmHg 41%
    19:00 +8°C° 0 mm 3 mps 746 mmHg 49%
    20:00 +5°C° 0 mm 3 mps 746 mmHg 56%
    21:00 +4°C° 0 mm 3 mps 746 mmHg 63%
    22:00 +4°C° 0 mm 3 mps 746 mmHg 67%
    23:00 +4°C° 0 mm 3 mps 746 mmHg 71%

    25 May, Friday

    Time Temperature Precipitation Wind Pressure Humidity
    00:00 +3°C° 0 mm 3 mps 746 mmHg 75%
    01:00 +3°C° 0 mm 3 mps 745 mmHg 78%
    02:00 +3°C° 0 mm 3 mps 745 mmHg 82%
    03:00 +3°C° 0 mm 3 mps 745 mmHg 86%
    04:00 +3°C° 0 mm 4 mps 744 mmHg 83%
    05:00 +3°C° 0 mm 5 mps 744 mmHg 80%
    06:00 +5°C° 0 mm 5 mps 744 mmHg 77%
    07:00 +6°C° 0.1 mm 5 mps 743 mmHg 78%
    08:00 +6°C° 0.1 mm 5 mps 743 mmHg 79%
    09:00 +5°C° 0.1 mm 6 mps 742 mmHg 80%
    10:00 +7°C° 0.7 mm 5 mps 742 mmHg 83%
    11:00 +7°C° 0.7 mm 5 mps 742 mmHg 86%
    12:00 +7°C° 0.7 mm 5 mps 742 mmHg 89%
    13:00 +7°C° 0.1 mm 5 mps 742 mmHg 89%
    14:00 +8°C° 0.1 mm 5 mps 742 mmHg 90%
    15:00 +8°C° 0.1 mm 4 mps 742 mmHg 90%
    16:00 +10°C° 0.2 mm 4 mps 742 mmHg 90%
    17:00 +10°C° 0.2 mm 4 mps 742 mmHg 90%
    18:00 +11°C° 0.2 mm 3 mps 742 mmHg 91%
    19:00 +11°C° 1 mm 3 mps 741 mmHg 93%
    20:00 +10°C° 1 mm 3 mps 741 mmHg 94%
    21:00 +10°C° 1 mm 3 mps 741 mmHg 96%
    22:00 +10°C° 0.8 mm 3 mps 741 mmHg 97%
    23:00 +10°C° 0.8 mm 2 mps 741 mmHg 97%

    26 May, Saturday

    Time Temperature Precipitation Wind Pressure Humidity
    00:00 +10°C° 0.8 mm 2 mps 740 mmHg 97%
    01:00 +10°C° 0.6 mm 2 mps 740 mmHg 97%
    02:00 +10°C° 0.6 mm 2 mps 740 mmHg 98%
    03:00 +11°C° 0.6 mm 1 mps 740 mmHg 98%
    04:00 +10°C° 1.3 mm 2 mps 740 mmHg 97%
    05:00 +9°C° 1.3 mm 3 mps 740 mmHg 97%
    06:00 +9°C° 1.3 mm 3 mps 740 mmHg 96%
    07:00 +8°C° 0.3 mm 3 mps 741 mmHg 94%
    08:00 +6°C° 0.3 mm 4 mps 741 mmHg 92%
    09:00 +5°C° 0.3 mm 4 mps 742 mmHg 90%
    10:00 +5°C° 0.5 mm 4 mps 742 mmHg 86%
    11:00 +5°C° 0.5 mm 4 mps 743 mmHg 83%
    12:00 +7°C° 0.5 mm 3 mps 744 mmHg 79%
    13:00 +8°C° 0 mm 3 mps 745 mmHg 72%
    14:00 +9°C° 0 mm 3 mps 745 mmHg 65%
    15:00 +12°C° 0 mm 2 mps 746 mmHg 58%
    16:00 +12°C° 0 mm 2 mps 746 mmHg 55%
    17:00 +13°C° 0 mm 1 mps 746 mmHg 53%
    18:00 +13°C° 0 mm 1 mps 747 mmHg 50%
    19:00 +12°C° 0.1 mm 1 mps 747 mmHg 57%
    20:00 +10°C° 0.1 mm 1 mps 747 mmHg 63%
    21:00 +9°C° 0.1 mm 1 mps 747 mmHg 69%
    22:00 +8°C° 0.4 mm 1 mps 747 mmHg 73%
    23:00 +7°C° 0.4 mm 1 mps 747 mmHg 77%

    27 May, Sunday

    Time Temperature Precipitation Wind Pressure Humidity
    00:00 +7°C° 0.4 mm 1 mps 747 mmHg 81%
    01:00 +5°C° 0 mm 2 mps 747 mmHg 78%
    02:00 +5°C° 0 mm 2 mps 747 mmHg 76%
    03:00 +5°C° 0 mm 2 mps 747 mmHg 74%
    04:00 +5°C° 0 mm 2 mps 747 mmHg 73%
    05:00 +5°C° 0 mm 2 mps 748 mmHg 72%
    06:00 +5°C° 0 mm 2 mps 748 mmHg 71%
    07:00 +5°C° 0.6 mm 2 mps 748 mmHg 71%
    08:00 +5°C° 0.6 mm 2 mps 748 mmHg 70%
    09:00 +5°C° 0.6 mm 2 mps 749 mmHg 70%
    10:00 +7°C° 0.1 mm 2 mps 749 mmHg 60%
    11:00 +9°C° 0.1 mm 2 mps 749 mmHg 51%
    12:00 +11°C° 0.1 mm 3 mps 750 mmHg 42%
    13:00 +13°C° 0 mm 2 mps 750 mmHg 38%
    14:00 +14°C° 0 mm 2 mps 750 mmHg 34%
    15:00 +15°C° 0 mm 2 mps 750 mmHg 30%
    16:00 +15°C° 0 mm 2 mps 750 mmHg 30%
    17:00 +14°C° 0 mm 1 mps 750 mmHg 31%
    18:00 +14°C° 0 mm 1 mps 750 mmHg 32%
    19:00 +12°C° 0 mm 1 mps 749 mmHg 38%
    20:00 +10°C° 0 mm 1 mps 749 mmHg 45%
    21:00 +8°C° 0 mm 1 mps 749 mmHg 51%
    22:00 +7°C° 0 mm 1 mps 749 mmHg 57%
    23:00 +6°C° 0 mm 1 mps 749 mmHg 63%
    Show more